Time,TemperatureF,DewpointF,PressureIn,WindDirection,WindDirectionDegrees,WindSpeedMPH,WindSpeedGustMPH,Humidity,HourlyPrecipIn,Conditions,Clouds,dailyrainin,SoftwareType,DateUTC
2013-05-02 00:02:00,66.0,60.0,29.95,ENE,72,10.0,10.0,81,0.00,,,0.00,,2013-05-02 05:02:00,
2013-05-02 00:12:00,66.0,60.0,29.95,ENE,72,10.0,10.0,81,0.00,,,0.00,,2013-05-02 05:12:00,
2013-05-02 00:22:00,65.0,59.0,29.94,East,94,6.0,7.0,82,0.00,,,0.00,,2013-05-02 05:22:00,
2013-05-02 00:32:00,64.0,59.0,29.96,North,3,4.0,7.0,85,0.00,,,0.00,,2013-05-02 05:32:00,
2013-05-02 00:42:00,64.0,59.0,29.96,North,3,4.0,7.0,85,0.00,,,0.00,,2013-05-02 05:42:00,
2013-05-02 00:51:00,64.0,59.0,29.97,NNE,24,12.0,12.0,85,0.00,,,0.00,,2013-05-02 05:51:00,
2013-05-02 01:01:00,65.0,59.0,29.98,NNE,27,11.0,12.0,80,0.00,,,0.00,,2013-05-02 06:01:00,
2013-05-02 01:12:00,65.0,59.0,29.98,NNE,27,11.0,12.0,80,0.00,,,0.00,,2013-05-02 06:12:00,
2013-05-02 01:21:00,62.0,54.0,30.01,NNW,333,17.0,17.0,74,0.00,,,0.00,,2013-05-02 06:21:00,
2013-05-02 01:31:00,60.0,52.0,30.02,NW,325,18.0,26.0,74,0.00,,,0.00,,2013-05-02 06:31:00,
2013-05-02 01:42:00,60.0,52.0,30.02,NW,325,18.0,26.0,74,0.00,,,0.00,,2013-05-02 06:42:00,
2013-05-02 01:52:00,58.0,51.0,30.03,NNW,343,15.0,18.0,77,0.00,,,0.00,,2013-05-02 06:52:00,
2013-05-02 02:02:00,58.0,50.0,30.04,NW,312,15.0,18.0,74,0.00,,,0.00,,2013-05-02 07:02:00,
2013-05-02 02:11:00,58.0,50.0,30.04,NW,312,15.0,18.0,74,0.00,,,0.00,,2013-05-02 07:11:00,
2013-05-02 02:21:00,56.0,48.0,30.06,NW,318,13.0,21.0,75,0.00,,,0.00,,2013-05-02 07:21:00,
2013-05-02 02:32:00,55.0,48.0,30.07,NW,321,19.0,19.0,78,0.00,,,0.00,,2013-05-02 07:32:00,
2013-05-02 02:41:00,54.0,47.0,30.08,NW,305,21.0,23.0,78,0.00,,,0.00,,2013-05-02 07:41:00,
2013-05-02 02:52:00,54.0,47.0,30.08,NW,305,21.0,23.0,78,0.00,,,0.00,,2013-05-02 07:52:00,
2013-05-02 03:02:00,53.0,47.0,30.09,NNW,347,25.0,25.0,79,0.00,,,0.00,,2013-05-02 08:02:00,
2013-05-02 03:11:00,53.0,47.0,30.09,NNW,347,25.0,25.0,79,0.00,,,0.00,,2013-05-02 08:11:00,
2013-05-02 03:22:00,52.0,46.0,30.09,NW,315,22.0,24.0,81,0.00,,,0.00,,2013-05-02 08:22:00,
2013-05-02 03:32:00,51.0,45.0,30.10,NW,305,21.0,21.0,81,0.00,,,0.00,,2013-05-02 08:32:00,
2013-05-02 03:42:00,51.0,45.0,30.10,NW,305,21.0,21.0,81,0.00,,,0.00,,2013-05-02 08:42:00,
2013-05-02 03:52:00,50.0,46.0,30.11,NW,315,20.0,20.0,85,0.00,,,0.00,,2013-05-02 08:52:00,
2013-05-02 04:02:00,49.0,45.0,30.13,NW,314,23.0,24.0,87,0.00,,,0.00,,2013-05-02 09:02:00,
2013-05-02 04:11:00,49.0,45.0,30.13,NW,314,23.0,24.0,87,0.00,,,0.00,,2013-05-02 09:11:00,
2013-05-02 04:21:00,48.0,45.0,30.15,NW,319,25.0,28.0,88,0.00,,,0.00,,2013-05-02 09:21:00,
2013-05-02 04:32:00,47.0,44.0,30.16,NNW,342,22.0,22.0,89,0.00,,,0.00,,2013-05-02 09:32:00,
2013-05-02 04:42:00,47.0,44.0,30.16,NNW,342,22.0,22.0,89,0.00,,,0.00,,2013-05-02 09:42:00,
2013-05-02 04:52:00,47.0,44.0,30.16,NNW,338,21.0,22.0,89,0.00,,,0.00,,2013-05-02 09:52:00,
2013-05-02 05:02:00,46.0,43.0,30.17,NNW,343,16.0,16.0,90,0.00,,,0.00,,2013-05-02 10:02:00,
2013-05-02 05:12:00,46.0,43.0,30.17,NNW,343,16.0,16.0,90,0.00,,,0.00,,2013-05-02 10:12:00,
2013-05-02 05:22:00,45.0,42.0,30.19,NNW,333,16.0,21.0,90,0.00,,,0.00,,2013-05-02 10:22:00,
2013-05-02 05:33:00,45.0,42.0,30.21,NNW,333,16.0,16.0,90,0.00,,,0.00,,2013-05-02 10:33:00,
2013-05-02 05:42:00,45.0,42.0,30.21,NNW,333,16.0,16.0,90,0.00,,,0.00,,2013-05-02 10:42:00,
2013-05-02 05:53:00,44.0,42.0,30.21,NW,323,21.0,22.0,91,0.00,,,0.00,,2013-05-02 10:53:00,
2013-05-02 06:02:00,44.0,42.0,30.22,NNW,335,20.0,20.0,91,0.00,,,0.00,,2013-05-02 11:02:00,
2013-05-02 06:12:00,44.0,42.0,30.22,NNW,335,20.0,20.0,91,0.00,,,0.00,,2013-05-02 11:12:00,
2013-05-02 06:22:00,43.0,41.0,30.24,NNW,328,20.0,20.0,91,0.00,,,0.00,,2013-05-02 11:22:00,
2013-05-02 06:32:00,43.0,41.0,30.25,North,0,13.0,13.0,91,0.00,,,0.00,,2013-05-02 11:32:00,
2013-05-02 06:42:00,43.0,41.0,30.25,North,0,13.0,13.0,91,0.00,,,0.00,,2013-05-02 11:42:00,
2013-05-02 06:52:00,43.0,41.0,30.26,NNW,329,17.0,20.0,91,0.00,,,0.00,,2013-05-02 11:52:00,
2013-05-02 07:01:00,42.0,39.0,30.27,NNW,336,16.0,16.0,90,0.00,,,0.00,,2013-05-02 12:01:00,
2013-05-02 07:11:00,42.0,39.0,30.27,NNW,336,16.0,16.0,90,0.00,,,0.00,,2013-05-02 12:11:00,
2013-05-02 07:21:00,42.0,39.0,30.28,NW,322,20.0,20.0,90,0.00,,,0.00,,2013-05-02 12:21:00,
2013-05-02 07:32:00,42.0,39.0,30.29,NNW,347,17.0,17.0,89,0.00,,,0.00,,2013-05-02 12:32:00,
2013-05-02 07:42:00,42.0,39.0,30.29,NNW,347,17.0,17.0,89,0.00,,,0.00,,2013-05-02 12:42:00,
2013-05-02 07:52:00,42.0,39.0,30.30,NNW,335,13.0,14.0,89,0.00,,,0.00,,2013-05-02 12:52:00,
2013-05-02 08:01:00,42.0,39.0,30.31,NW,309,14.0,15.0,89,0.00,,,0.00,,2013-05-02 13:01:00,
2013-05-02 08:11:00,42.0,39.0,30.31,NW,309,14.0,15.0,89,0.00,,,0.00,,2013-05-02 13:11:00,
2013-05-02 08:21:00,42.0,39.0,30.32,NNW,332,14.0,14.0,90,0.00,,,0.00,,2013-05-02 13:21:00,
2013-05-02 08:31:00,42.0,39.0,30.33,NW,309,11.0,11.0,90,0.00,,,0.00,,2013-05-02 13:31:00,
2013-05-02 08:42:00,42.0,39.0,30.33,NW,309,11.0,11.0,90,0.00,,,0.00,,2013-05-02 13:42:00,
2013-05-02 08:52:00,42.0,40.0,30.33,NNW,328,15.0,15.0,93,0.00,,,0.00,,2013-05-02 13:52:00,
2013-05-02 09:02:00,42.0,40.0,30.34,NNW,338,16.0,17.0,94,0.00,,,0.00,,2013-05-02 14:02:00,
2013-05-02 09:11:00,42.0,40.0,30.34,NNW,338,16.0,17.0,94,0.00,,,0.00,,2013-05-02 14:11:00,
2013-05-02 09:22:00,42.0,40.0,30.34,NNW,335,13.0,18.0,91,0.00,,,0.00,,2013-05-02 14:22:00,
2013-05-02 09:32:00,43.0,40.0,30.34,NNW,333,18.0,19.0,89,0.00,,,0.00,,2013-05-02 14:32:00,
2013-05-02 09:42:00,43.0,40.0,30.34,NNW,333,18.0,19.0,89,0.00,,,0.00,,2013-05-02 14:42:00,
2013-05-02 09:52:00,43.0,40.0,30.35,NW,318,14.0,14.0,89,0.00,,,0.00,,2013-05-02 14:52:00,
2013-05-02 10:02:00,43.0,40.0,30.35,NNW,330,20.0,20.0,88,0.00,,,0.00,,2013-05-02 15:02:00,
2013-05-02 10:12:00,43.0,40.0,30.35,NNW,330,20.0,20.0,88,0.00,,,0.00,,2013-05-02 15:12:00,
2013-05-02 10:22:00,43.0,39.0,30.36,NW,315,21.0,21.0,87,0.00,,,0.00,,2013-05-02 15:22:00,
2013-05-02 10:33:00,44.0,40.0,30.37,North,7,14.0,17.0,86,0.00,,,0.00,,2013-05-02 15:33:00,
2013-05-02 10:43:00,44.0,40.0,30.37,North,7,14.0,17.0,86,0.00,,,0.00,,2013-05-02 15:43:00,
2013-05-02 11:02:00,45.0,41.0,30.37,NNW,340,16.0,20.0,85,0.00,,,0.00,,2013-05-02 16:02:00,
2013-05-02 11:13:00,45.0,41.0,30.37,NNW,340,16.0,20.0,85,0.00,,,0.00,,2013-05-02 16:13:00,
2013-05-02 11:22:00,45.0,40.0,30.39,NNW,342,20.0,22.0,83,0.00,,,0.00,,2013-05-02 16:22:00,
2013-05-02 11:32:00,45.0,40.0,30.40,WNW,297,15.0,20.0,84,0.00,,,0.00,,2013-05-02 16:32:00,
2013-05-02 11:43:00,45.0,40.0,30.41,NW,315,17.0,17.0,84,0.00,,,0.00,,2013-05-02 16:43:00,
2013-05-02 11:52:00,45.0,40.0,30.41,NW,315,17.0,17.0,84,0.00,,,0.00,,2013-05-02 16:52:00,
2013-05-02 12:02:00,45.0,40.0,30.41,NNW,329,18.0,27.0,81,0.00,,,0.00,,2013-05-02 17:02:00,
2013-05-02 12:12:00,46.0,41.0,30.42,North,357,18.0,18.0,81,0.00,,,0.00,,2013-05-02 17:12:00,
2013-05-02 12:22:00,46.0,41.0,30.42,North,357,18.0,18.0,81,0.00,,,0.00,,2013-05-02 17:22:00,
2013-05-02 12:31:00,45.0,40.0,30.42,NW,305,15.0,20.0,82,0.00,,,0.00,,2013-05-02 17:31:00,
2013-05-02 12:42:00,45.0,40.0,30.42,NW,305,15.0,20.0,82,0.00,,,0.00,,2013-05-02 17:42:00,
2013-05-02 12:52:00,46.0,41.0,30.42,NNW,332,19.0,24.0,81,0.00,,,0.00,,2013-05-02 17:52:00,
2013-05-02 13:01:00,46.0,41.0,30.42,NW,305,15.0,19.0,81,0.00,,,0.00,,2013-05-02 18:01:00,
2013-05-02 13:11:00,46.0,41.0,30.42,NW,305,15.0,19.0,81,0.00,,,0.00,,2013-05-02 18:11:00,
2013-05-02 13:21:00,46.0,41.0,30.42,North,357,21.0,21.0,81,0.00,,,0.00,,2013-05-02 18:21:00,
2013-05-02 13:31:00,46.0,40.0,30.42,NW,319,20.0,21.0,80,0.00,,,0.00,,2013-05-02 18:31:00,
2013-05-02 13:41:00,46.0,40.0,30.42,NW,319,20.0,21.0,80,0.00,,,0.00,,2013-05-02 18:41:00,
2013-05-02 13:52:00,45.0,39.0,30.42,NNW,333,19.0,22.0,80,0.00,,,0.00,,2013-05-02 18:52:00,
2013-05-02 14:01:00,46.0,40.0,30.42,NNW,328,19.0,26.0,79,0.00,,,0.00,,2013-05-02 19:01:00,
2013-05-02 14:11:00,46.0,40.0,30.42,NNW,328,19.0,26.0,79,0.00,,,0.00,,2013-05-02 19:11:00,
2013-05-02 14:21:00,46.0,40.0,30.42,NNW,328,19.0,20.0,78,0.00,,,0.00,,2013-05-02 19:21:00,
2013-05-02 14:31:00,45.0,39.0,30.43,North,352,25.0,25.0,79,0.00,,,0.00,,2013-05-02 19:31:00,
2013-05-02 14:42:00,45.0,39.0,30.43,North,352,25.0,25.0,79,0.00,,,0.00,,2013-05-02 19:42:00,
2013-05-02 14:52:00,45.0,39.0,30.43,NW,323,20.0,20.0,79,0.00,,,0.00,,2013-05-02 19:52:00,
2013-05-02 15:02:00,46.0,39.0,30.43,NW,325,17.0,19.0,77,0.00,,,0.00,,2013-05-02 20:02:00,
2013-05-02 15:11:00,46.0,39.0,30.43,NW,325,17.0,19.0,77,0.00,,,0.00,,2013-05-02 20:11:00,
2013-05-02 15:22:00,46.0,39.0,30.43,NNE,14,16.0,16.0,77,0.00,,,0.00,,2013-05-02 20:22:00,
2013-05-02 15:32:00,46.0,39.0,30.43,NNW,332,21.0,25.0,76,0.00,,,0.00,,2013-05-02 20:32:00,
2013-05-02 15:41:00,46.0,39.0,30.43,NNW,332,21.0,25.0,76,0.00,,,0.00,,2013-05-02 20:41:00,
2013-05-02 15:52:00,47.0,39.0,30.43,NW,326,16.0,16.0,75,0.00,,,0.00,,2013-05-02 20:52:00,
2013-05-02 16:01:00,47.0,39.0,30.42,NW,322,19.0,23.0,73,0.00,,,0.00,,2013-05-02 21:01:00,
2013-05-02 16:11:00,47.0,39.0,30.42,NW,322,19.0,23.0,73,0.00,,,0.00,,2013-05-02 21:11:00,
2013-05-02 16:21:00,48.0,39.0,30.42,NW,318,15.0,15.0,72,0.00,,,0.00,,2013-05-02 21:21:00,
2013-05-02 16:33:00,49.0,40.0,30.42,NW,325,18.0,18.0,71,0.00,,,0.00,,2013-05-02 21:33:00,
2013-05-02 16:42:00,49.0,40.0,30.42,NW,325,18.0,18.0,71,0.00,,,0.00,,2013-05-02 21:42:00,
2013-05-02 16:53:00,50.0,40.0,30.42,NNW,332,13.0,13.0,68,0.00,,,0.00,,2013-05-02 21:53:00,
2013-05-02 17:02:00,51.0,40.0,30.41,NW,312,18.0,21.0,65,0.00,,,0.00,,2013-05-02 22:02:00,
2013-05-02 17:12:00,51.0,40.0,30.41,NW,312,18.0,21.0,65,0.00,,,0.00,,2013-05-02 22:12:00,
2013-05-02 17:22:00,51.0,39.0,30.41,NW,322,17.0,22.0,64,0.00,,,0.00,,2013-05-02 22:22:00,
2013-05-02 17:32:00,52.0,39.0,30.40,NW,321,18.0,18.0,61,0.00,,,0.00,,2013-05-02 22:32:00,
2013-05-02 17:42:00,52.0,39.0,30.40,NW,321,18.0,18.0,61,0.00,,,0.00,,2013-05-02 22:42:00,
2013-05-02 17:52:00,53.0,40.0,30.39,NNW,330,19.0,22.0,61,0.00,,,0.00,,2013-05-02 22:52:00,
2013-05-02 18:02:00,54.0,40.0,30.39,North,352,22.0,22.0,59,0.00,,,0.00,,2013-05-02 23:02:00,
2013-05-02 18:11:00,54.0,40.0,30.39,North,352,22.0,22.0,59,0.00,,,0.00,,2013-05-02 23:11:00,
2013-05-02 18:22:00,54.0,40.0,30.38,NW,322,19.0,22.0,58,0.00,,,0.00,,2013-05-02 23:22:00,
2013-05-02 18:32:00,53.0,39.0,30.38,NW,315,18.0,18.0,60,0.00,,,0.00,,2013-05-02 23:32:00,
2013-05-02 18:42:00,53.0,39.0,30.38,NW,315,18.0,18.0,60,0.00,,,0.00,,2013-05-02 23:42:00,
2013-05-02 18:52:00,52.0,39.0,30.38,WNW,300,19.0,19.0,60,0.00,,,0.00,,2013-05-02 23:52:00,
2013-05-02 19:01:00,53.0,39.0,30.39,NNW,335,15.0,17.0,59,0.00,,,0.00,,2013-05-03 00:01:00,
2013-05-02 19:11:00,53.0,39.0,30.39,NNW,335,15.0,17.0,59,0.00,,,0.00,,2013-05-03 00:11:00,
2013-05-02 19:21:00,51.0,38.0,30.39,NW,321,22.0,22.0,61,0.00,,,0.00,,2013-05-03 00:21:00,
2013-05-02 19:31:00,51.0,38.0,30.39,NW,326,20.0,20.0,60,0.00,,,0.00,,2013-05-03 00:31:00,
2013-05-02 19:41:00,51.0,38.0,30.39,NW,326,20.0,20.0,60,0.00,,,0.00,,2013-05-03 00:41:00,
2013-05-02 19:52:00,51.0,38.0,30.39,North,350,16.0,22.0,62,0.00,,,0.00,,2013-05-03 00:52:00,
2013-05-02 20:01:00,50.0,38.0,30.40,NW,321,18.0,23.0,63,0.00,,,0.00,,2013-05-03 01:01:00,
2013-05-02 20:11:00,50.0,38.0,30.40,NW,321,18.0,23.0,63,0.00,,,0.00,,2013-05-03 01:11:00,
2013-05-02 20:21:00,49.0,37.0,30.40,NNW,336,20.0,20.0,64,0.00,,,0.00,,2013-05-03 01:21:00,
2013-05-02 20:31:00,49.0,38.0,30.40,NNW,333,17.0,20.0,66,0.00,,,0.00,,2013-05-03 01:31:00,
2013-05-02 20:42:00,49.0,38.0,30.40,NNW,333,17.0,20.0,66,0.00,,,0.00,,2013-05-03 01:42:00,
2013-05-02 20:52:00,48.0,37.0,30.41,NW,323,18.0,22.0,65,0.00,,,0.00,,2013-05-03 01:52:00,
2013-05-02 21:01:00,48.0,37.0,30.42,NNW,329,11.0,16.0,66,0.00,,,0.00,,2013-05-03 02:01:00,
2013-05-02 21:11:00,48.0,37.0,30.42,NNW,329,11.0,16.0,66,0.00,,,0.00,,2013-05-03 02:11:00,
2013-05-02 21:21:00,47.0,37.0,30.42,NW,319,14.0,14.0,67,0.00,,,0.00,,2013-05-03 02:21:00,
2013-05-02 21:32:00,47.0,36.0,30.43,NW,325,12.0,12.0,66,0.00,,,0.00,,2013-05-03 02:32:00,
2013-05-02 21:42:00,47.0,36.0,30.43,NW,325,12.0,12.0,66,0.00,,,0.00,,2013-05-03 02:42:00,
2013-05-02 21:52:00,47.0,37.0,30.43,NW,319,10.0,10.0,68,0.00,,,0.00,,2013-05-03 02:52:00,
2013-05-02 22:01:00,46.0,36.0,30.44,NNW,343,9.0,9.0,69,0.00,,,0.00,,2013-05-03 03:01:00,
2013-05-02 22:11:00,45.0,36.0,30.44,NNW,346,6.0,7.0,70,0.00,,,0.00,,2013-05-03 03:11:00,
2013-05-02 22:21:00,45.0,36.0,30.44,NNW,346,6.0,7.0,70,0.00,,,0.00,,2013-05-03 03:21:00,
2013-05-02 22:33:00,45.0,36.0,30.45,North,359,5.0,5.0,71,0.00,,,0.00,,2013-05-03 03:33:00,
2013-05-02 22:42:00,45.0,36.0,30.45,North,359,5.0,5.0,71,0.00,,,0.00,,2013-05-03 03:42:00,
2013-05-02 22:53:00,44.0,36.0,30.45,NNW,345,4.0,4.0,73,0.00,,,0.00,,2013-05-03 03:53:00,
2013-05-02 23:02:00,43.0,35.0,30.45,NW,305,4.0,4.0,74,0.00,,,0.00,,2013-05-03 04:02:00,
2013-05-02 23:12:00,43.0,35.0,30.45,NW,305,4.0,4.0,74,0.00,,,0.00,,2013-05-03 04:12:00,
2013-05-02 23:22:00,42.0,35.0,30.45,NW,319,4.0,5.0,76,0.00,,,0.00,,2013-05-03 04:22:00,
2013-05-02 23:32:00,40.0,34.0,30.45,NW,316,2.0,2.0,79,0.00,,,0.00,,2013-05-03 04:32:00,
2013-05-02 23:42:00,40.0,34.0,30.45,NW,316,2.0,2.0,79,0.00,,,0.00,,2013-05-03 04:42:00,
2013-05-02 23:53:00,40.0,34.0,30.45,WNW,288,3.0,3.0,80,0.00,,,0.00,,2013-05-03 04:53:00,